sat.trackr.live / text

‹ back to catalog

STARLINK-32636

NORAD 62232 · 2024-231Q

PAYLOAD ACTIVE UNKNOWN

§ Identity

Operator
Country
US
Launch date
2024-12-05
Launch site
AFWTR
Launch vehicle
Mass (kg)
RCS (m²)

Purposes: comms

External: N2YO · Heavens-Above · Gunter

§ Orbital elements

Epoch: 2026-05-24T22:09:05.756256Z

Period
94.10 min
Inclination
53.1585°
Eccentricity
0.0000817
Mean motion
15.30206453 rev/d
Perigee alt
474.6 km
Apogee alt
475.8 km
Semi-major
6,853.3 km
B*
4.4305e-4
RAAN
225.2795°
Arg perigee
68.7983°
Mean anomaly
291.3105°
Rev number
8,344

§ Raw data

STARLINK-326361 62232U 24231Q   26144.92298329  .00012788  00000+0  44305-3 0  99922 62232  53.1585 225.2795 0000817  68.7983 291.3105 15.30206453 83442

JSON: /api/v1/satellites/62232 · /tle

For live sub-satellite position, see the globe view (requires WebGL).

§ Visibility from observer

Set your observer location to see the next 7 days of passes ≥ 10°. The values pass through the URL so the page stays shareable.

No JS? Fill the form by hand. The geolocation button needs JavaScript.